Epoch 2023 Feb. 25.0 TT = JDT 2460000.5 T 2022 Aug. 18.65184 TT Rudenko q 3.4002536 (2000.0) P Q n 0.10116618 Peri. 206.75807 -0.04484402 -0.99726714 a 4.5615504 Node 245.86099 +0.92769619 -0.01976652 e 0.2545838 Incl. 3.68894 +0.37063296 -0.07118670 P 9.74 >From 101 observations 2004 Mar. 17-2021 Dec. 7, mean residual 0".4.
m1 = 13.0 + 5 logΔ + 10.0 log r